Location: Eferding
(48.3167°N, 14.0167°E)
Time: 03:16:33
(UTC+00:00)

Meteor 2-20 - Pass Details

Date: 12 November 2019
Orbit: 940 x 958 km, 82.5° (Epoch: 14 December)

Event Time Altitude Azimuth Distance (km) Brightness Sun altitude
Rises 16:51:07 0° 178° (S) 3,603 7.6 -13.7°
Reaches altitude 10° 16:53:36 10° 176° (S) 2,665 6.9 -14.1°
Maximum altitude 16:59:38 67° 95° (E) 1,029 4.4 -15.0°
Drops below altitude 10° 17:05:45 10° 14° (NNE) 2,696 6.6 -16.0°
Sets 17:08:16 0° 12° (NNE) 3,648 7.3 -16.5°
